Wind_Speed
16 17 17 17 18 19 20 20 20 20 21 22 23 24 24 24 26 27 28 28 29 30 29 30 30 31 32 32 32 32 32 33 33 33 33 33 33 33 33 33 34 34 34
17 17 18 17 18 18 19 20 21 21 21 21 22 23 24 25 27 27 28 28 29 28 29 29 30 31 31 31 32 32 32 32 33 33 32 33 33 34 34 34 34 34 34
16 17 17 17 18 18 19 19 20 20 21 21 22 24 25 26 26 27 27 28 28 28 29 29 30 30 30 30 30 30 31 32 32 32 32 33 33 33 33 34 34 34 34
15 16 16 17 18 18 18 18 19 20 21 21 22 23 24 25 26 26 26 27 28 28 29 30 30 29 28 29 29 30 31 32 32 33 33 32 32 32 32 32 33 34 35
15 16 16 17 17 17 18 18 19 20 21 22 22 23 24 25 25 26 27 28 28 29 29 29 29 29 29 29 29 29 30 30 30 30 31 30 30 31 31 31 32 33 34
15 15 16 16 17 17 18 18 19 21 21 21 21 23 24 25 26 26 27 28 28 29 29 29 29 29 29 29 30 30 29 29 29 30 30 28 28 29 30 30 31 31 31
14 15 16 17 17 17 18 19 19 20 21 22 22 24 25 26 26 27 27 28 29 29 28 28 28 28 28 29 29 29 29 28 28 29 28 27 27 28 28 29 29 29 30
14 15 16 16 17 18 18 19 20 21 21 22 22 24 25 26 26 27 28 28 29 28 28 28 28 28 27 27 28 28 28 27 27 27 27 27 27 27 27 27 27 28 29
14 14 15 15 16 17 18 19 20 20 21 22 23 24 25 26 26 27 28 28 28 29 29 28 27 26 26 26 26 27 26 25 26 26 27 26 25 26 26 25 25 26 26
13 14 14 15 16 17 18 18 19 20 21 22 22 23 25 26 26 27 28 28 28 28 28 27 26 26 26 26 26 25 24 24 24 24 25 24 24 24 24 24 24 24 24
13 14 14 15 15 17 17 18 19 20 21 21 22 23 25 25 26 27 28 28 28 28 27 26 25 25 25 25 24 23 23 23 23 23 23 22 23 23 23 23 23 23 23
13 13 14 15 16 17 17 18 19 20 21 21 22 24 25 25 26 26 27 27 27 27 26 25 24 24 24 24 24 23 23 23 23 22 22 21 21 22 22 22 22 22 22
13 13 14 14 15 16 18 18 19 20 21 21 22 23 24 26 26 26 27 27 27 27 26 25 24 24 24 24 24 24 23 23 23 22 22 21 21 21 20 20 20 19 19
12 12 13 14 15 16 17 18 19 20 21 22 23 24 25 26 27 27 27 28 28 28 27 26 25 24 25 25 25 24 23 23 23 22 21 20 20 20 19 19 18 18 18
11 12 13 13 14 15 16 17 19 20 21 22 23 24 25 26 27 28 28 29 29 29 28 27 26 25 25 25 24 24 24 24 23 23 22 21 20 19 19 18 18 17 17
10 12 12 12 13 14 16 18 19 20 20 22 23 24 25 26 27 28 29 30 30 29 28 27 26 26 25 25 25 25 25 25 24 23 22 20 19 19 18 17 18 17 16
11 12 12 12 13 14 16 17 18 19 20 22 23 25 26 27 28 29 30 30 30 30 29 28 27 26 26 25 25 24 24 24 24 23 22 21 20 19 17 17 17 17 17
11 12 12 12 13 15 16 17 17 18 20 21 23 24 26 27 29 30 30 31 30 30 30 29 28 28 27 26 26 25 25 25 24 23 23 21 20 19 17 17 17 18 18
10 11 12 12 13 15 15 15 16 18 20 21 23 24 26 27 28 29 30 31 31 31 31 30 29 28 28 27 26 25 25 25 24 23 22 22 21 19 18 17 17 18 17
10 11 12 13 14 15 15 15 16 18 20 21 23 25 26 27 28 29 30 31 31 32 32 31 30 29 28 27 27 26 26 25 25 24 22 21 21 20 18 18 18 18 17
10 11 12 13 14 15 15 16 17 18 20 21 22 24 25 26 28 29 29 30 31 32 32 32 31 30 29 28 27 27 27 26 25 24 23 22 21 20 19 18 18 17 17
10 11 12 13 13 14 15 16 17 18 19 21 22 24 25 27 28 29 29 30 31 31 32 32 31 30 29 28 28 28 27 27 26 25 24 23 21 20 19 18 18 17 17
10 10 12 12 13 14 14 15 17 18 19 21 22 23 24 25 26 28 29 30 31 31 32 32 32 31 31 30 29 29 28 27 26 26 24 23 22 21 19 19 18 17 16
10 11 11 12 12 13 14 15 17 18 19 20 21 22 23 25 26 27 29 30 31 31 31 32 31 31 31 30 30 29 29 28 27 26 25 23 22 21 21 20 18 17 16
10 11 11 12 12 13 14 15 17 18 19 20 21 22 24 25 26 27 29 30 31 31 32 32 32 31 31 31 29 29 29 28 27 27 26 24 23 22 21 20 19 17 16
11 11 12 12 13 14 14 16 17 18 19 20 21 22 23 24 25 27 28 29 30 31 32 32 32 32 31 31 30 29 29 28 28 27 26 25 23 22 21 20 19 18 18
Wind_Direction
309 308 309 310 309 308 308 309 310 310 311 315 313 311 311 312 313 313 311 310 308 306 304 302 301 300 297 294 293 294 293 291 290 288 287 286 284 281 280 277 273 270 265
312 314 315 312 311 310 310 311 312 312 314 314 314 314 313 314 315 314 313 312 311 310 308 306 304 302 299 296 295 294 293 292 291 290 287 286 284 282 279 278 275 271 267
313 314 317 317 315 315 316 316 315 316 317 316 316 316 316 316 315 315 315 315 313 312 310 308 305 303 301 299 296 295 295 294 292 290 287 285 284 282 278 276 275 271 267
313 315 319 321 320 319 318 318 317 318 318 318 318 319 320 319 318 318 318 317 316 314 312 310 308 305 304 302 300 297 296 295 293 290 287 285 282 281 279 277 274 271 266
316 318 319 321 321 319 318 320 318 319 319 320 321 322 324 324 322 321 321 319 318 317 315 313 311 308 306 305 302 301 299 298 295 294 291 288 285 282 279 279 276 272 269
317 320 321 322 322 321 321 321 321 323 323 323 324 324 326 327 326 324 323 321 320 319 318 316 313 311 308 306 304 303 302 300 298 297 294 293 290 287 284 281 278 274 271
318 321 323 324 325 324 324 324 326 327 326 325 324 326 327 327 326 326 326 326 324 322 320 318 317 315 312 310 308 306 305 303 300 298 297 296 294 290 286 283 280 276 273
321 322 323 324 326 326 327 329 331 330 328 327 327 329 329 329 329 329 328 327 327 325 323 320 318 316 316 313 311 310 307 306 303 301 300 298 295 293 290 287 283 278 274
320 322 325 328 328 328 330 333 336 335 332 331 331 332 333 334 333 331 329 328 328 327 325 323 322 321 320 319 318 317 315 311 307 305 303 301 298 294 291 289 285 280 276
322 326 327 330 330 333 337 339 340 339 338 338 337 336 337 337 336 334 332 331 330 330 329 328 327 327 326 326 324 322 320 317 313 310 307 303 301 296 293 290 288 284 280
325 327 328 331 336 339 341 341 341 342 342 342 340 340 340 340 340 338 337 337 335 335 334 332 331 331 330 330 330 328 325 323 320 316 313 310 307 304 299 296 293 287 283
327 328 330 335 339 342 343 343 343 344 345 345 344 345 345 345 344 342 341 340 340 339 338 337 336 335 335 334 333 332 330 328 325 322 319 315 313 310 306 301 298 293 289
326 329 333 337 341 343 345 345 346 347 347 347 347 348 348 348 347 345 344 343 343 342 341 340 339 339 339 337 337 335 333 332 331 329 325 320 317 313 310 306 301 297 293
325 328 332 336 341 344 346 348 348 349 349 350 350 350 350 349 350 350 350 349 348 346 345 344 344 342 341 340 339 338 337 335 333 332 330 326 323 320 316 314 309 303 298
325 329 332 335 340 343 346 347 349 350 351 352 352 352 352 352 354 355 354 353 352 349 348 347 345 344 343 342 341 341 340 339 338 336 334 332 329 326 323 321 319 315 309
325 329 332 335 339 341 343 346 348 350 352 354 354 354 355 355 356 357 356 356 355 353 352 349 348 347 346 345 344 343 343 343 342 340 338 336 333 331 328 326 325 322 317
322 326 328 332 336 339 342 346 348 350 353 354 355 355 356 357 357 357 357 358 357 355 353 352 351 351 349 348 347 346 344 344 344 342 341 340 338 336 332 330 328 327 325
319 323 326 330 334 338 341 345 349 350 351 353 355 356 357 358 358 359 359 359 358 357 356 354 353 352 350 349 348 347 346 346 346 345 344 343 342 340 338 335 333 331 330
317 322 326 328 332 336 340 342 345 348 351 354 356 357 358 358 359 359 0 1 359 357 356 356 355 354 352 351 350 349 348 349 349 348 347 346 344 342 340 339 339 339 338
317 321 325 330 334 337 339 341 343 347 351 354 356 357 357 358 358 359 0 1 1 360 359 358 357 356 356 355 354 353 352 352 353 352 351 349 348 347 345 343 342 343 342
316 321 327 332 334 336 337 339 344 348 350 352 353 354 356 357 358 358 359 360 1 1 1 -0 359 359 359 358 358 358 357 355 354 353 352 352 352 351 351 350 349 347 346
318 322 326 330 333 335 336 339 341 343 346 348 351 352 354 355 355 357 358 359 0 1 0 1 2 2 2 1 0 359 358 358 358 357 356 356 354 353 353 353 353 352 350
315 316 321 327 334 338 339 339 340 342 344 345 347 350 351 353 354 355 357 358 359 359 0 2 3 3 2 0 360 359 359 358 358 358 356 356 356 354 354 354 354 353 353
316 318 320 327 333 336 337 338 340 342 344 345 347 349 351 353 353 355 358 359 360 1 1 1 1 1 1 0 360 359 360 360 0 0 359 358 358 356 355 355 354 353 352
313 318 323 329 332 334 336 339 341 344 346 349 350 351 353 354 355 356 357 358 360 0 -0 0 0 360 359 359 359 0 1 2 2 2 1 0 360 359 358 357 357 356 354
312 317 324 328 330 332 335 338 341 344 347 349 350 350 351 352 354 356 357 358 359 360 360 0 360 359 359 359 360 1 1 2 2 2 2 1 1 1 0 0 0 358 355
Height
5777 5775 5773 5771 5769 5767 5765 5762 5760 5757 5754 5752 5749 5747 5744 5741 5739 5735 5732 5728 5725 5721 5718 5714 5710 5707 5703 5700 5697 5694 5690 5687 5685 5683 5681 5679 5677 5676 5676 5675 5676 5676 5677
5774 5772 5770 5768 5765 5763 5761 5758 5756 5752 5749 5747 5744 5742 5739 5736 5733 5729 5726 5722 5718 5714 5710 5707 5703 5699 5695 5691 5688 5684 5681 5678 5675 5673 5671 5669 5667 5666 5666 5665 5665 5665 5666
5771 5769 5767 5764 5761 5759 5756 5754 5751 5748 5745 5743 5740 5737 5734 5731 5727 5724 5720 5716 5712 5708 5703 5699 5695 5691 5686 5683 5679 5676 5672 5669 5666 5664 5662 5659 5658 5656 5655 5654 5654 5654 5655
5768 5766 5763 5761 5758 5755 5753 5750 5748 5745 5742 5739 5736 5733 5729 5726 5722 5718 5714 5710 5705 5701 5696 5692 5687 5682 5678 5675 5671 5667 5664 5660 5657 5654 5652 5650 5648 5646 5644 5644 5643 5643 5644
5765 5762 5760 5757 5755 5752 5750 5747 5744 5742 5738 5735 5732 5729 5725 5721 5717 5713 5708 5704 5699 5694 5689 5684 5679 5674 5670 5667 5663 5659 5655 5651 5648 5645 5642 5640 5638 5636 5634 5633 5633 5632 5633
5762 5759 5757 5755 5752 5749 5747 5744 5741 5738 5735 5731 5728 5725 5721 5716 5712 5707 5703 5698 5693 5688 5683 5677 5672 5668 5663 5659 5655 5650 5646 5643 5640 5636 5634 5631 5629 5626 5625 5623 5623 5623 5623
5759 5757 5754 5752 5749 5747 5744 5741 5738 5735 5731 5728 5724 5721 5716 5712 5707 5702 5697 5692 5687 5681 5676 5670 5665 5660 5656 5651 5647 5642 5638 5634 5631 5628 5625 5622 5620 5618 5616 5615 5613 5612 5613
5757 5755 5752 5749 5747 5744 5741 5738 5735 5732 5728 5725 5721 5717 5712 5708 5703 5698 5693 5687 5681 5675 5670 5664 5659 5654 5649 5644 5640 5635 5631 5627 5624 5620 5617 5614 5611 5609 5607 5605 5604 5603 5603
5755 5752 5750 5747 5745 5742 5739 5736 5732 5729 5725 5722 5718 5713 5709 5704 5699 5693 5688 5682 5676 5670 5664 5659 5653 5648 5643 5638 5633 5629 5624 5620 5616 5613 5609 5606 5603 5601 5598 5597 5595 5594 5594
5753 5750 5748 5745 5743 5740 5737 5733 5730 5727 5723 5719 5715 5710 5705 5700 5695 5689 5683 5677 5671 5665 5659 5653 5648 5643 5637 5632 5627 5623 5618 5614 5610 5606 5603 5599 5596 5594 5591 5589 5587 5586 5585
5750 5748 5746 5743 5740 5738 5735 5732 5728 5725 5721 5717 5713 5708 5703 5697 5692 5685 5679 5673 5666 5660 5654 5648 5643 5638 5633 5627 5623 5618 5614 5609 5605 5601 5597 5593 5590 5587 5584 5581 5579 5578 5577
5749 5746 5744 5741 5739 5736 5733 5730 5727 5723 5719 5714 5710 5705 5699 5694 5688 5682 5676 5669 5663 5656 5650 5644 5639 5634 5629 5624 5619 5614 5609 5604 5600 5596 5591 5588 5584 5581 5577 5574 5572 5570 5569
5747 5745 5743 5740 5738 5735 5732 5729 5725 5721 5717 5712 5708 5702 5697 5691 5685 5679 5673 5666 5660 5653 5647 5641 5635 5630 5625 5620 5615 5610 5605 5600 5595 5590 5586 5582 5578 5575 5572 5569 5566 5564 5562
5745 5743 5741 5739 5737 5734 5731 5728 5724 5720 5715 5711 5706 5701 5695 5689 5683 5677 5670 5664 5657 5650 5644 5638 5632 5627 5622 5616 5611 5606 5601 5596 5591 5586 5581 5577 5573 5570 5566 5563 5561 5558 5557
5744 5742 5740 5738 5736 5733 5730 5726 5722 5718 5714 5709 5704 5699 5693 5687 5681 5675 5668 5662 5655 5648 5642 5636 5630 5625 5619 5614 5608 5603 5598 5593 5587 5582 5577 5573 5569 5566 5562 5559 5556 5554 5551
5743 5741 5739 5737 5734 5732 5728 5725 5721 5717 5712 5708 5703 5698 5692 5686 5680 5673 5667 5660 5653 5646 5640 5634 5628 5622 5616 5611 5606 5600 5595 5589 5584 5579 5574 5570 5566 5563 5559 5556 5553 5550 5547
5741 5739 5737 5735 5733 5730 5727 5723 5720 5716 5711 5707 5702 5697 5691 5685 5679 5673 5666 5659 5652 5645 5638 5632 5625 5620 5614 5608 5603 5597 5592 5587 5581 5576 5572 5568 5564 5560 5556 5553 5550 5547 5543
5739 5737 5735 5733 5731 5728 5725 5721 5718 5714 5711 5706 5701 5696 5690 5684 5678 5672 5665 5658 5651 5644 5637 5630 5624 5618 5612 5606 5601 5595 5590 5584 5579 5574 5570 5565 5561 5557 5554 5550 5547 5544 5540
5737 5735 5734 5731 5729 5726 5723 5720 5717 5713 5709 5705 5700 5695 5690 5684 5678 5672 5665 5658 5650 5643 5636 5629 5622 5616 5610 5604 5599 5593 5588 5582 5577 5572 5567 5563 5559 5555 5551 5548 5544 5541 5537
5735 5733 5732 5729 5727 5724 5721 5718 5715 5712 5708 5703 5699 5694 5689 5683 5677 5671 5664 5657 5650 5643 5635 5628 5622 5615 5609 5603 5597 5592 5586 5581 5575 5570 5565 5561 5556 5552 5549 5545 5542 5538 5535
5733 5731 5730 5728 5725 5723 5720 5717 5714 5710 5706 5702 5698 5693 5688 5682 5677 5670 5663 5656 5649 5642 5635 5628 5621 5615 5609 5602 5597 5591 5585 5579 5574 5569 5564 5559 5555 5551 5547 5543 5540 5537 5533
5731 5729 5728 5726 5724 5721 5718 5715 5712 5709 5705 5701 5697 5692 5687 5681 5676 5669 5663 5656 5649 5642 5635 5628 5621 5615 5608 5602 5596 5590 5585 5579 5573 5568 5563 5558 5554 5550 5546 5542 5538 5535 5532
5729 5728 5726 5724 5722 5719 5717 5714 5710 5707 5703 5699 5695 5690 5685 5680 5675 5669 5663 5656 5649 5642 5635 5628 5622 5615 5608 5602 5596 5590 5584 5578 5573 5567 5562 5558 5553 5549 5545 5541 5537 5534 5531
5727 5725 5724 5722 5720 5717 5715 5712 5709 5706 5702 5698 5694 5689 5684 5679 5674 5668 5662 5656 5649 5642 5636 5629 5622 5615 5608 5602 5595 5589 5583 5577 5572 5566 5561 5556 5552 5548 5544 5540 5537 5533 5530
5725 5723 5721 5719 5717 5715 5713 5710 5707 5704 5700 5696 5692 5688 5683 5678 5673 5668 5662 5655 5649 5642 5635 5628 5621 5614 5608 5601 5595 5588 5582 5577 5571 5566 5561 5556 5552 5547 5543 5539 5536 5533 5530
5722 5720 5719 5717 5715 5713 5711 5708 5705 5702 5699 5695 5691 5687 5682 5678 5673 5667 5661 5655 5648 5642 5635 5628 5621 5614 5607 5600 5594 5588 5582 5577 5571 5566 5561 5556 5552 5547 5543 5540 5536 5533 5529